sat.trackr.live / text

‹ back to catalog

STARLINK-2500

NORAD 48485 · 2021-040BK

PAYLOAD ACTIVE UNKNOWN

§ Identity

Operator
Country
US
Launch date
2021-05-09
Launch site
AFETR
Launch vehicle
Mass (kg)
RCS (m²)

Purposes: comms

External: N2YO · Heavens-Above · Gunter

§ Orbital elements

Epoch: 2026-05-24T20:52:51.532032Z

Period
94.01 min
Inclination
53.1590°
Eccentricity
0.0001194
Mean motion
15.31699419 rev/d
Perigee alt
469.9 km
Apogee alt
471.6 km
Semi-major
6,848.9 km
B*
5.2912e-5
RAAN
199.4146°
Arg perigee
87.2574°
Mean anomaly
272.8564°
Rev number
27,813

§ Raw data

STARLINK-25001 48485U 21040BK  26144.87004088  .00001277  00000+0  52912-4 0  99972 48485  53.1590 199.4146 0001194  87.2574 272.8564 15.31699419278139

JSON: /api/v1/satellites/48485 · /tle

For live sub-satellite position, see the globe view (requires WebGL).

§ Visibility from observer

Set your observer location to see the next 7 days of passes ≥ 10°. The values pass through the URL so the page stays shareable.

No JS? Fill the form by hand. The geolocation button needs JavaScript.